START_TIME,STEP,MOV.,A46,t_acc.,A13,t_acc.,M47,t_acc.,A17,t_acc.,A28,t_acc.,M38,t_acc.
1981-08-28 03:00:26.240 ,7,0,,0,2.,4.8,0.,4.8,,0,0.,4.8,0.,4.8
1981-08-28 03:00:31.040 ,7,0,,0,0.,4.8,0.,4.8,,0,0.,4.8,0.,4.8
1981-08-28 03:00:35.840 ,7,0,,0,8.,4.8,0.,4.8,,0,0.,4.8,0.,4.8
1981-08-28 03:00:40.640 ,7,0,,0,0.,4.8,0.,4.8,,0,0.,4.8,0.,4.8
1981-08-28 03:00:45.440 ,7,0,,0,0.,4.8,0.,4.8,,0,0.,4.8,0.,4.8
1981-08-28 03:00:50.240 ,7,0,,0,0.,4.8,0.,4.8,,0,0.,4.8,0.,4.8
1981-08-28 03:00:55.040 ,7,0,,0,0.,4.8,0.,4.8,,0,0.,4.8,0.,4.8
1981-08-28 03:00:59.840 ,7,0,,0,2.,4.8,0.,4.8,,0,0.,4.8,0.,4.8
1981-08-28 03:01:04.640 ,7,0,,0,12.,4.8,0.,4.8,,0,0.,4.8,0.,4.8
1981-08-28 03:01:09.440 ,7,0,,0,11.,4.8,0.,4.8,,0,0.,4.8,0.,4.8
1981-08-28 03:01:14.240 ,7,0,,0,12.,4.8,0.,4.8,,0,0.,4.8,0.,4.8
1981-08-28 03:01:19.040 ,7,0,,0,9.,4.8,0.,4.8,,0,0.,4.8,0.,4.8
1981-08-28 03:01:23.840 ,7,0,,0,11.,4.8,0.,4.8,,0,0.,4.8,0.,4.8
1981-08-28 03:01:28.640 ,7,0,,0,0.,4.8,0.,4.8,,0,0.,4.8,0.,4.8
1981-08-28 03:01:33.440 ,7,0,,0,0.,4.8,0.,4.8,,0,0.,4.8,0.,4.8
1981-08-28 03:01:38.240 ,6,0,,0,0.,4.8,0.,4.8,,0,0.,4.8,0.,4.8
1981-08-28 03:01:43.040 ,6,0,,0,0.,4.8,0.,4.8,,0,0.,4.8,0.,4.8
1981-08-28 03:01:47.840 ,6,0,,0,0.,4.8,0.,4.8,,0,0.,4.8,0.,4.8
1981-08-28 03:01:52.640 ,6,0,,0,1.,4.8,0.,4.8,,0,0.,4.8,0.,4.8
1981-08-28 03:01:57.440 ,6,0,,0,3.,4.8,0.,4.8,,0,0.,4.8,0.,4.8
1981-08-28 03:02:02.240 ,6,0,,0,0.,4.8,0.,4.8,,0,0.,4.8,0.,4.8
1981-08-28 03:02:07.040 ,6,0,,0,0.,4.8,0.,4.8,,0,0.,4.8,0.,4.8
1981-08-28 03:02:11.840 ,6,0,,0,1.,4.8,0.,4.8,,0,0.,4.8,0.,4.8
1981-08-28 03:02:16.640 ,6,0,,0,0.,4.8,0.,4.8,,0,0.,4.8,0.,4.8
1981-08-28 03:02:21.440 ,6,0,,0,0.,4.8,0.,4.8,,0,1.,4.8,0.,4.8
1981-08-28 03:02:26.240 ,5,0,,0,0.,4.8,0.,4.8,,0,0.,4.8,0.,4.8
1981-08-28 03:02:31.040 ,5,0,,0,0.,4.8,0.,4.8,,0,0.,4.8,0.,4.8
1981-08-28 03:02:35.840 ,5,0,,0,0.,4.8,0.,4.8,,0,0.,4.8,0.,4.8
1981-08-28 03:02:40.640 ,5,0,,0,1.,4.8,0.,4.8,,0,0.,4.8,0.,4.8
1981-08-28 03:02:45.440 ,5,0,,0,2.,4.8,0.,4.8,,0,0.,4.8,0.,4.8
1981-08-28 03:02:50.240 ,5,0,,0,1.,4.8,0.,4.8,,0,0.,4.8,0.,4.8
1981-08-28 03:02:55.040 ,5,0,,0,0.,4.8,0.,4.8,,0,0.,4.8,0.,4.8
1981-08-28 03:02:59.840 ,5,0,,0,0.,4.8,0.,4.8,,0,0.,4.8,0.,4.8
1981-08-28 03:03:04.640 ,5,0,,0,0.,4.8,0.,4.8,,0,0.,4.8,0.,4.8
1981-08-28 03:03:09.440 ,5,0,,0,0.,4.8,0.,4.8,,0,0.,4.8,0.,4.8
1981-08-28 03:03:14.240 ,4,0,,0,0.,4.8,0.,4.8,,0,0.,4.8,0.,4.8
1981-08-28 03:03:19.040 ,4,0,,0,0.,4.8,0.,4.8,,0,0.,4.8,0.,4.8
1981-08-28 03:03:23.840 ,4,0,,0,0.,4.8,0.,4.8,,0,0.,4.8,0.,4.8
1981-08-28 03:03:28.640 ,4,0,,0,1.,4.8,0.,4.8,,0,0.,4.8,0.,4.8
1981-08-28 03:03:33.440 ,4,0,,0,0.,4.8,0.,4.8,,0,0.,4.8,0.,4.8
1981-08-28 03:03:38.240 ,4,0,,0,0.,4.8,0.,4.8,,0,0.,4.8,0.,4.8
1981-08-28 03:03:43.040 ,4,0,,0,0.,4.8,0.,4.8,,0,0.,4.8,0.,4.8
1981-08-28 03:03:47.840 ,4,0,,0,0.,4.8,0.,4.8,,0,0.,4.8,0.,4.8
1981-08-28 03:03:52.640 ,4,0,,0,0.,4.8,0.,4.8,,0,0.,4.8,0.,4.8
1981-08-28 03:03:57.440 ,4,0,,0,0.,4.8,0.,4.8,,0,0.,4.8,0.,4.8
1981-08-28 03:04:02.240 ,3,0,,0,1.,4.8,0.,4.8,,0,0.,4.8,0.,4.8
1981-08-28 03:04:07.040 ,3,0,,0,0.,4.8,0.,4.8,,0,0.,4.8,0.,4.8
1981-08-28 03:04:11.840 ,3,0,,0,0.,4.8,0.,4.8,,0,0.,4.8,0.,4.8
1981-08-28 03:04:16.640 ,3,0,,0,0.,4.8,0.,4.8,,0,0.,4.8,0.,4.8
1981-08-28 03:04:21.440 ,3,0,,0,0.,4.8,0.,4.8,,0,0.,4.8,0.,4.8
1981-08-28 03:04:26.240 ,3,0,,0,2.,4.8,0.,4.8,,0,0.,4.8,0.,4.8
1981-08-28 03:04:31.040 ,3,0,,0,1.,4.8,0.,4.8,,0,0.,4.8,0.,4.8
1981-08-28 03:04:35.840 ,3,0,,0,0.,4.8,0.,4.8,,0,0.,4.8,0.,4.8
1981-08-28 03:04:40.640 ,3,0,,0,0.,4.8,0.,4.8,,0,0.,4.8,0.,4.8
1981-08-28 03:04:45.440 ,3,0,,0,0.,4.8,0.,4.8,,0,0.,4.8,0.,4.8
1981-08-28 03:04:50.240 ,2,0,,0,0.,4.8,0.,4.8,,0,0.,4.8,0.,4.8
1981-08-28 03:04:55.040 ,2,0,,0,0.,4.8,0.,4.8,,0,0.,4.8,0.,4.8
1981-08-28 03:04:59.840 ,2,0,,0,0.,4.8,0.,4.8,,0,0.,4.8,0.,4.8
1981-08-28 03:05:04.640 ,2,0,,0,0.,4.8,0.,4.8,,0,0.,4.8,0.,4.8
1981-08-28 03:05:09.440 ,2,0,,0,3.,4.8,0.,4.8,,0,0.,4.8,0.,4.8
1981-08-28 03:05:14.240 ,2,0,,0,0.,4.8,0.,4.8,,0,0.,4.8,0.,4.8
1981-08-28 03:05:19.040 ,2,0,,0,1.,4.8,0.,4.8,,0,0.,4.8,0.,4.8
1981-08-28 03:05:23.840 ,2,0,,0,1.,4.8,0.,4.8,,0,0.,4.8,0.,4.8
1981-08-28 03:05:28.640 ,2,0,,0,0.,4.8,0.,4.8,,0,0.,4.8,0.,4.8
1981-08-28 03:05:33.440 ,2,0,,0,0.,4.8,0.,4.8,,0,0.,4.8,0.,4.8
1981-08-28 03:05:38.240 ,1,0,,0,0.,4.8,0.,4.8,,0,0.,4.8,0.,4.8
1981-08-28 03:05:43.040 ,1,0,,0,0.,4.8,0.,4.8,,0,0.,4.8,0.,4.8
1981-08-28 03:05:47.840 ,1,0,,0,0.,4.8,0.,4.8,,0,1.,4.8,0.,4.8
1981-08-28 03:05:52.640 ,1,0,,0,0.,4.8,0.,4.8,,0,0.,4.8,0.,4.8
1981-08-28 03:05:57.440 ,1,0,,0,1.,4.8,0.,4.8,,0,0.,4.8,0.,4.8
1981-08-28 03:06:02.240 ,1,0,,0,1.,4.8,0.,4.8,,0,0.,4.8,0.,4.8
1981-08-28 03:06:07.040 ,1,0,,0,0.,4.8,0.,4.8,,0,0.,4.8,0.,4.8
1981-08-28 03:06:11.840 ,1,0,,0,0.,4.8,0.,4.8,,0,0.,4.8,0.,4.8
1981-08-28 03:06:16.640 ,1,0,,0,0.,4.8,0.,4.8,,0,0.,4.8,0.,4.8
1981-08-28 03:06:21.440 ,1,0,,0,0.,4.8,0.,4.8,,0,0.,4.8,0.,4.8
1981-08-28 03:06:26.240 ,0,0,,0,0.,4.8,0.,4.8,,0,0.,4.8,0.,4.8
1981-08-28 03:06:31.040 ,0,0,,0,0.,4.8,0.,4.8,,0,0.,4.8,0.,4.8
1981-08-28 03:06:35.840 ,0,0,,0,0.,4.8,0.,4.8,,0,0.,4.8,0.,4.8
1981-08-28 03:06:40.640 ,0,0,,0,0.,4.8,0.,4.8,,0,0.,4.8,0.,4.8
1981-08-28 03:06:45.440 ,0,0,,0,0.,4.8,0.,4.8,,0,0.,4.8,0.,4.8
1981-08-28 03:06:50.240 ,0,0,,0,1.,4.8,0.,4.8,,0,0.,4.8,0.,4.8
1981-08-28 03:06:55.040 ,0,0,,0,0.,4.8,0.,4.8,,0,0.,4.8,0.,4.8
1981-08-28 03:06:59.840 ,0,0,,0,0.,4.8,0.,4.8,,0,0.,4.8,0.,4.8
1981-08-28 03:07:04.640 ,0,0,,0,0.,4.8,0.,4.8,,0,0.,4.8,0.,4.8
1981-08-28 03:07:09.440 ,0,0,,0,0.,4.8,0.,4.8,,0,0.,4.8,0.,4.8
1981-08-28 03:09:38.240 ,0,0,,0,0.,4.8,0.,4.8,,0,0.,4.8,0.,4.8
1981-08-28 03:09:43.040 ,0,0,,0,0.,4.8,0.,4.8,,0,0.,4.8,0.,4.8
1981-08-28 03:09:47.840 ,0,0,,0,0.,4.8,0.,4.8,,0,0.,4.8,0.,4.8
1981-08-28 03:09:52.640 ,0,0,,0,2.,4.8,0.,4.8,,0,0.,4.8,0.,4.8
1981-08-28 03:09:57.440 ,0,0,,0,0.,4.8,0.,4.8,,0,0.,4.8,0.,4.8
1981-08-28 03:10:02.240 ,0,0,,0,0.,4.8,0.,4.8,,0,0.,4.8,0.,4.8
1981-08-28 03:10:07.040 ,0,0,,0,0.,4.8,0.,4.8,,0,0.,4.8,0.,4.8
1981-08-28 03:10:11.840 ,0,0,,0,1.,4.8,0.,4.8,,0,0.,4.8,0.,4.8
1981-08-28 03:10:16.640 ,0,0,,0,0.,4.8,0.,4.8,,0,0.,4.8,0.,4.8
1981-08-28 03:10:21.440 ,0,0,,0,0.,4.8,0.,4.8,,0,0.,4.8,0.,4.8
1981-08-28 03:10:26.240 ,4,0,,0,0.,4.8,0.,4.8,,0,0.,4.8,0.,4.8
1981-08-28 03:10:31.040 ,4,0,,0,0.,4.8,0.,4.8,,0,0.,4.8,0.,4.8
1981-08-28 03:10:35.840 ,4,0,,0,1.,4.8,0.,4.8,,0,0.,4.8,0.,4.8
1981-08-28 03:10:40.640 ,4,0,,0,0.,4.8,0.,4.8,,0,0.,4.8,0.,4.8
1981-08-28 03:10:45.440 ,4,0,,0,0.,4.8,0.,4.8,,0,0.,4.8,0.,4.8
1981-08-28 03:10:50.240 ,4,0,,0,0.,4.8,0.,4.8,,0,0.,4.8,0.,4.8
1981-08-28 03:10:55.040 ,4,0,,0,0.,4.8,0.,4.8,,0,0.,4.8,0.,4.8
1981-08-28 03:10:59.840 ,4,0,,0,1.,4.8,0.,4.8,,0,0.,4.8,0.,4.8
1981-08-28 03:11:04.640 ,4,0,,0,0.,4.8,0.,4.8,,0,0.,4.8,0.,4.8
1981-08-28 03:11:09.440 ,4,0,,0,0.,4.8,0.,4.8,,0,0.,4.8,0.,4.8
1981-08-28 03:11:14.240 ,5,0,,0,0.,4.8,0.,4.8,,0,0.,4.8,0.,4.8
1981-08-28 03:11:19.040 ,5,0,,0,0.,4.8,0.,4.8,,0,0.,4.8,0.,4.8
1981-08-28 03:11:23.840 ,5,0,,0,0.,4.8,0.,4.8,,0,0.,4.8,0.,4.8
1981-08-28 03:11:28.640 ,5,0,,0,1.,4.8,0.,4.8,,0,0.,4.8,0.,4.8
1981-08-28 03:11:33.440 ,5,0,,0,0.,4.8,0.,4.8,,0,0.,4.8,0.,4.8
1981-08-28 03:11:38.240 ,5,0,,0,0.,4.8,0.,4.8,,0,0.,4.8,0.,4.8
1981-08-28 03:11:43.040 ,5,0,,0,0.,4.8,0.,4.8,,0,0.,4.8,0.,4.8
1981-08-28 03:11:47.840 ,5,0,,0,1.,4.8,0.,4.8,,0,0.,4.8,0.,4.8
1981-08-28 03:11:52.640 ,5,0,,0,0.,4.8,0.,4.8,,0,0.,4.8,0.,4.8
1981-08-28 03:11:57.440 ,5,0,,0,0.,4.8,0.,4.8,,0,0.,4.8,0.,4.8
1981-08-28 03:12:50.240 ,0,0,,0,0.,4.8,0.,4.8,,0,0.,4.8,0.,4.8
1981-08-28 03:12:55.040 ,0,0,,0,0.,4.8,0.,4.8,,0,0.,4.8,0.,4.8
1981-08-28 03:12:59.840 ,0,0,,0,2.,4.8,0.,4.8,,0,0.,4.8,0.,4.8
1981-08-28 03:13:04.640 ,0,0,,0,18.,4.8,0.,4.8,,0,0.,4.8,0.,4.8
1981-08-28 03:13:09.440 ,0,0,,0,10.,4.8,0.,4.8,,0,0.,4.8,0.,4.8
1981-08-28 03:13:14.240 ,0,0,,0,4.,4.8,0.,4.8,,0,0.,4.8,0.,4.8
1981-08-28 03:13:19.040 ,0,0,,0,15.,4.8,0.,4.8,,0,0.,4.8,0.,4.8
1981-08-28 03:13:23.840 ,0,0,,0,5.,4.8,0.,4.8,,0,0.,4.8,0.,4.8
1981-08-28 03:13:28.640 ,0,0,,0,0.,4.8,0.,4.8,,0,0.,4.8,0.,4.8
1981-08-28 03:13:33.440 ,0,0,,0,0.,4.8,0.,4.8,,0,0.,4.8,0.,4.8
1981-08-28 03:15:14.240 ,0,0,,0,0.,4.8,0.,4.8,,0,0.,4.8,0.,4.8
1981-08-28 03:15:19.040 ,0,0,,0,0.,4.8,0.,4.8,,0,0.,4.8,0.,4.8
1981-08-28 03:15:23.840 ,0,0,,0,0.,4.8,0.,4.8,,0,0.,4.8,0.,4.8
1981-08-28 03:15:28.640 ,0,0,,0,1.,4.8,0.,4.8,,0,0.,4.8,0.,4.8
1981-08-28 03:15:33.440 ,0,0,,0,1.,4.8,0.,4.8,,0,0.,4.8,0.,4.8
1981-08-28 03:15:38.240 ,2,0,,0,0.,4.8,0.,4.8,,0,0.,4.8,0.,4.8
1981-08-28 03:15:43.040 ,2,0,,0,1.,4.8,0.,4.8,,0,0.,4.8,0.,4.8
1981-08-28 03:15:47.840 ,2,0,,0,1.,4.8,0.,4.8,,0,0.,4.8,0.,4.8
1981-08-28 03:15:52.640 ,2,0,,0,0.,4.8,0.,4.8,,0,0.,4.8,0.,4.8
1981-08-28 03:15:57.440 ,2,0,,0,0.,4.8,0.,4.8,,0,0.,4.8,0.,4.8
1981-08-28 03:16:02.240 ,1,0,,0,0.,4.8,0.,4.8,,0,0.,4.8,0.,4.8
1981-08-28 03:16:07.040 ,1,0,,0,0.,4.8,0.,4.8,,0,0.,4.8,0.,4.8
1981-08-28 03:16:11.840 ,1,0,,0,0.,4.8,0.,4.8,,0,0.,4.8,0.,4.8
1981-08-28 03:16:16.640 ,1,0,,0,1.,4.8,0.,4.8,,0,0.,4.8,0.,4.8
1981-08-28 03:16:21.440 ,1,0,,0,0.,4.8,0.,4.8,,0,0.,4.8,0.,4.8
1981-08-28 03:16:26.240 ,0,0,,0,1.,4.8,0.,4.8,,0,0.,4.8,0.,4.8
1981-08-28 03:16:31.040 ,0,0,,0,0.,4.8,0.,4.8,,0,0.,4.8,0.,4.8
1981-08-28 03:16:35.840 ,0,0,,0,1.,4.8,0.,4.8,,0,0.,4.8,0.,4.8
1981-08-28 03:16:40.640 ,0,0,,0,0.,4.8,0.,4.8,,0,0.,4.8,0.,4.8
1981-08-28 03:16:45.440 ,0,0,,0,0.,4.8,0.,4.8,,0,0.,4.8,0.,4.8
1981-08-28 03:16:50.240 ,0,0,,0,0.,4.8,0.,4.8,,0,0.,4.8,0.,4.8
1981-08-28 03:16:55.040 ,0,0,,0,0.,4.8,0.,4.8,,0,0.,4.8,0.,4.8
1981-08-28 03:16:59.840 ,0,0,,0,0.,4.8,0.,4.8,,0,0.,4.8,0.,4.8
1981-08-28 03:17:04.640 ,0,0,,0,0.,4.8,0.,4.8,,0,0.,4.8,0.,4.8
1981-08-28 03:17:09.440 ,0,0,,0,1.,4.8,0.,4.8,,0,0.,4.8,0.,4.8
1981-08-28 03:17:14.240 ,1,0,,0,0.,4.8,0.,4.8,,0,0.,4.8,0.,4.8
1981-08-28 03:17:19.040 ,1,0,,0,0.,4.8,0.,4.8,,0,0.,4.8,0.,4.8
1981-08-28 03:17:23.840 ,1,0,,0,0.,4.8,0.,4.8,,0,0.,4.8,0.,4.8
1981-08-28 03:17:28.640 ,1,0,,0,0.,4.8,0.,4.8,,0,0.,4.8,0.,4.8
1981-08-28 03:17:33.440 ,1,0,,0,0.,4.8,0.,4.8,,0,0.,4.8,0.,4.8
1981-08-28 03:17:38.240 ,2,0,,0,0.,4.8,0.,4.8,,0,0.,4.8,0.,4.8
1981-08-28 03:17:43.040 ,2,0,,0,0.,4.8,0.,4.8,,0,0.,4.8,0.,4.8
1981-08-28 03:17:47.840 ,2,0,,0,0.,4.8,0.,4.8,,0,0.,4.8,0.,4.8
1981-08-28 03:17:52.640 ,2,0,,0,1.,4.8,0.,4.8,,0,0.,4.8,0.,4.8
1981-08-28 03:17:57.440 ,2,0,,0,1.,4.8,0.,4.8,,0,0.,4.8,0.,4.8
1981-08-28 03:18:02.240 ,3,0,,0,0.,4.8,0.,4.8,,0,1.,4.8,0.,4.8
1981-08-28 03:18:07.040 ,3,0,,0,0.,4.8,0.,4.8,,0,0.,4.8,0.,4.8
1981-08-28 03:18:11.840 ,3,0,,0,3.,4.8,0.,4.8,,0,0.,4.8,0.,4.8
1981-08-28 03:18:16.640 ,3,0,,0,0.,4.8,0.,4.8,,0,0.,4.8,0.,4.8
1981-08-28 03:18:21.440 ,3,0,,0,0.,4.8,0.,4.8,,0,0.,4.8,0.,4.8
1981-08-28 03:18:26.240 ,4,0,,0,0.,4.8,0.,4.8,,0,0.,4.8,0.,4.8
1981-08-28 03:18:31.040 ,4,0,,0,0.,4.8,1.,4.8,,0,0.,4.8,0.,4.8
1981-08-28 03:18:35.840 ,4,0,,0,0.,4.8,0.,4.8,,0,0.,4.8,0.,4.8
1981-08-28 03:18:40.640 ,4,0,,0,0.,4.8,0.,4.8,,0,0.,4.8,0.,4.8
1981-08-28 03:18:45.440 ,4,0,,0,0.,4.8,0.,4.8,,0,0.,4.8,0.,4.8
1981-08-28 03:18:50.240 ,5,0,,0,0.,4.8,0.,4.8,,0,0.,4.8,0.,4.8
1981-08-28 03:18:55.040 ,5,0,,0,1.,4.8,0.,4.8,,0,0.,4.8,0.,4.8
1981-08-28 03:18:59.840 ,5,0,,0,1.,4.8,0.,4.8,,0,0.,4.8,0.,4.8
1981-08-28 03:19:04.640 ,5,0,,0,0.,4.8,0.,4.8,,0,0.,4.8,0.,4.8
1981-08-28 03:19:09.440 ,5,0,,0,0.,4.8,0.,4.8,,0,0.,4.8,0.,4.8
1981-08-28 03:19:14.240 ,6,0,,0,0.,4.8,0.,4.8,,0,0.,4.8,0.,4.8
1981-08-28 03:19:19.040 ,6,0,,0,0.,4.8,0.,4.8,,0,0.,4.8,0.,4.8
1981-08-28 03:19:23.840 ,6,0,,0,0.,4.8,0.,4.8,,0,0.,4.8,0.,4.8
1981-08-28 03:19:28.640 ,6,0,,0,1.,4.8,0.,4.8,,0,0.,4.8,0.,4.8
1981-08-28 03:19:33.440 ,6,0,,0,0.,4.8,0.,4.8,,0,0.,4.8,0.,4.8
1981-08-28 03:19:38.240 ,7,0,,0,2.,4.8,0.,4.8,,0,0.,4.8,0.,4.8
1981-08-28 03:19:43.040 ,7,0,,0,4.,4.8,0.,4.8,,0,0.,4.8,0.,4.8
1981-08-28 03:19:47.840 ,7,0,,0,8.,4.8,0.,4.8,,0,0.,4.8,0.,4.8
1981-08-28 03:19:52.640 ,7,0,,0,0.,4.8,0.,4.8,,0,0.,4.8,0.,4.8
1981-08-28 03:19:57.440 ,7,0,,0,0.,4.8,0.,4.8,,0,0.,4.8,0.,4.8
1981-08-28 03:24:17.240 ,0,0,,0,,0,,0,,0,,0,,0
1981-08-28 03:24:22.040 ,0,0,,0,,0,,0,,0,,0,,0
1981-08-28 03:24:26.840 ,0,0,,0,,0,,0,,0,,0,,0
1981-08-28 03:24:31.640 ,0,0,,0,0.,4.8,0.,4.8,,0,0.,4.8,0.,4.8
1981-08-28 03:24:36.440 ,0,0,,0,0.,4.8,0.,4.8,,0,0.,4.8,0.,4.8
1981-08-28 03:24:26.240 ,0,0,,0,1.,4.8,0.,4.8,,0,0.,4.8,0.,4.8
1981-08-28 03:24:31.040 ,0,0,,0,1.,4.8,0.,4.8,,0,0.,4.8,0.,4.8
1981-08-28 03:24:35.840 ,0,0,,0,0.,4.8,0.,4.8,,0,0.,4.8,0.,4.8
1981-08-28 03:24:40.640 ,0,0,,0,0.,4.8,0.,4.8,,0,0.,4.8,0.,4.8
1981-08-28 03:24:45.440 ,0,0,,0,0.,4.8,0.,4.8,,0,0.,4.8,0.,4.8
1981-08-28 03:24:50.240 ,1,0,,0,0.,4.8,0.,4.8,,0,0.,4.8,0.,4.8
1981-08-28 03:24:55.040 ,1,0,,0,0.,4.8,0.,4.8,,0,0.,4.8,0.,4.8
1981-08-28 03:24:59.840 ,1,0,,0,1.,4.8,0.,4.8,,0,0.,4.8,0.,4.8
1981-08-28 03:25:04.640 ,1,0,,0,0.,4.8,0.,4.8,,0,0.,4.8,0.,4.8
1981-08-28 03:25:09.440 ,1,0,,0,0.,4.8,0.,4.8,,0,0.,4.8,0.,4.8
1981-08-28 03:25:14.240 ,1,0,,0,1.,4.8,0.,4.8,,0,0.,4.8,0.,4.8
1981-08-28 03:25:19.040 ,1,0,,0,1.,4.8,0.,4.8,,0,0.,4.8,0.,4.8
1981-08-28 03:25:23.840 ,1,0,,0,0.,4.8,0.,4.8,,0,0.,4.8,0.,4.8
1981-08-28 03:25:28.640 ,1,0,,0,0.,4.8,0.,4.8,,0,0.,4.8,0.,4.8
1981-08-28 03:25:33.440 ,1,0,,0,0.,4.8,0.,4.8,,0,0.,4.8,0.,4.8
1981-08-28 03:25:38.240 ,0,0,,0,0.,4.8,0.,4.8,,0,0.,4.8,0.,4.8
1981-08-28 03:25:43.040 ,0,0,,0,0.,4.8,0.,4.8,,0,0.,4.8,0.,4.8
1981-08-28 03:25:47.840 ,0,0,,0,0.,4.8,0.,4.8,,0,0.,4.8,0.,4.8
1981-08-28 03:25:52.640 ,0,0,,0,0.,4.8,0.,4.8,,0,0.,4.8,0.,4.8
1981-08-28 03:25:57.440 ,0,0,,0,2.,4.8,0.,4.8,,0,0.,4.8,0.,4.8
1981-08-28 03:26:02.240 ,0,0,,0,0.,4.8,0.,4.8,,0,0.,4.8,0.,4.8
1981-08-28 03:26:07.040 ,0,0,,0,0.,4.8,0.,4.8,,0,0.,4.8,0.,4.8
1981-08-28 03:26:11.840 ,0,0,,0,0.,4.8,0.,4.8,,0,0.,4.8,0.,4.8
1981-08-28 03:26:16.640 ,0,0,,0,0.,4.8,0.,4.8,,0,0.,4.8,0.,4.8
1981-08-28 03:26:21.440 ,0,0,,0,0.,4.8,0.,4.8,,0,0.,4.8,0.,4.8
1981-08-28 03:26:26.240 ,0,0,,0,0.,4.8,0.,4.8,,0,0.,4.8,0.,4.8
1981-08-28 03:26:31.040 ,0,0,,0,0.,4.8,0.,4.8,,0,0.,4.8,0.,4.8
1981-08-28 03:26:35.840 ,0,0,,0,0.,4.8,0.,4.8,,0,0.,4.8,0.,4.8
1981-08-28 03:26:40.640 ,0,0,,0,0.,4.8,0.,4.8,,0,0.,4.8,0.,4.8
1981-08-28 03:26:45.440 ,0,0,,0,0.,4.8,0.,4.8,,0,0.,4.8,0.,4.8
1981-08-28 03:26:50.240 ,0,0,,0,0.,4.8,0.,4.8,,0,0.,4.8,0.,4.8
1981-08-28 03:26:55.040 ,0,0,,0,0.,4.8,0.,4.8,,0,0.,4.8,0.,4.8
1981-08-28 03:26:59.840 ,0,0,,0,0.,4.8,0.,4.8,,0,0.,4.8,0.,4.8
1981-08-28 03:27:04.640 ,0,0,,0,0.,4.8,0.,4.8,,0,0.,4.8,0.,4.8
1981-08-28 03:27:09.440 ,0,0,,0,0.,4.8,0.,4.8,,0,0.,4.8,0.,4.8
1981-08-28 03:27:14.240 ,1,0,,0,0.,4.8,0.,4.8,,0,0.,4.8,0.,4.8
1981-08-28 03:27:19.040 ,1,0,,0,0.,4.8,0.,4.8,,0,0.,4.8,0.,4.8
1981-08-28 03:27:23.840 ,1,0,,0,0.,4.8,0.,4.8,,0,0.,4.8,0.,4.8
1981-08-28 03:27:28.640 ,1,0,,0,0.,4.8,0.,4.8,,0,0.,4.8,0.,4.8
1981-08-28 03:27:33.440 ,1,0,,0,0.,4.8,0.,4.8,,0,0.,4.8,0.,4.8
1981-08-28 03:27:38.240 ,1,0,,0,1.,4.8,0.,4.8,,0,0.,4.8,0.,4.8
1981-08-28 03:27:43.040 ,1,0,,0,0.,4.8,0.,4.8,,0,0.,4.8,0.,4.8
1981-08-28 03:27:47.840 ,1,0,,0,0.,4.8,0.,4.8,,0,0.,4.8,0.,4.8
1981-08-28 03:27:52.640 ,1,0,,0,0.,4.8,0.,4.8,,0,0.,4.8,0.,4.8
1981-08-28 03:27:57.440 ,1,0,,0,0.,4.8,0.,4.8,,0,0.,4.8,0.,4.8
1981-08-28 03:28:02.240 ,2,0,,0,0.,4.8,0.,4.8,,0,0.,4.8,0.,4.8
1981-08-28 03:28:07.040 ,2,0,,0,0.,4.8,0.,4.8,,0,0.,4.8,0.,4.8
1981-08-28 03:28:11.840 ,2,0,,0,0.,4.8,0.,4.8,,0,0.,4.8,0.,4.8
1981-08-28 03:28:16.640 ,2,0,,0,0.,4.8,0.,4.8,,0,0.,4.8,0.,4.8
1981-08-28 03:28:21.440 ,2,0,,0,0.,4.8,0.,4.8,,0,0.,4.8,0.,4.8
1981-08-28 03:28:26.240 ,2,0,,0,0.,4.8,0.,4.8,,0,0.,4.8,0.,4.8
1981-08-28 03:28:31.040 ,2,0,,0,0.,4.8,0.,4.8,,0,0.,4.8,0.,4.8
1981-08-28 03:28:35.840 ,2,0,,0,0.,4.8,0.,4.8,,0,0.,4.8,0.,4.8
1981-08-28 03:28:40.640 ,2,0,,0,0.,4.8,0.,4.8,,0,0.,4.8,0.,4.8
1981-08-28 03:28:45.440 ,2,0,,0,0.,4.8,0.,4.8,,0,0.,4.8,0.,4.8
1981-08-28 03:28:50.240 ,3,0,,0,0.,4.8,0.,4.8,,0,0.,4.8,0.,4.8
1981-08-28 03:28:55.040 ,3,0,,0,0.,4.8,0.,4.8,,0,0.,4.8,0.,4.8
1981-08-28 03:28:59.840 ,3,0,,0,0.,4.8,0.,4.8,,0,0.,4.8,0.,4.8
1981-08-28 03:29:04.640 ,3,0,,0,1.,4.8,0.,4.8,,0,0.,4.8,0.,4.8
1981-08-28 03:29:09.440 ,3,0,,0,0.,4.8,0.,4.8,,0,0.,4.8,0.,4.8
1981-08-28 03:29:14.240 ,3,0,,0,1.,4.8,0.,4.8,,0,0.,4.8,0.,4.8
1981-08-28 03:29:19.040 ,3,0,,0,2.,4.8,0.,4.8,,0,0.,4.8,0.,4.8
1981-08-28 03:29:23.840 ,3,0,,0,0.,4.8,0.,4.8,,0,0.,4.8,0.,4.8
1981-08-28 03:29:28.640 ,3,0,,0,0.,4.8,0.,4.8,,0,1.,4.8,0.,4.8
1981-08-28 03:29:33.440 ,3,0,,0,0.,4.8,0.,4.8,,0,0.,4.8,0.,4.8
1981-08-28 03:29:38.240 ,4,0,,0,0.,4.8,0.,4.8,,0,0.,4.8,0.,4.8
1981-08-28 03:29:43.040 ,4,0,,0,0.,4.8,0.,4.8,,0,0.,4.8,0.,4.8
1981-08-28 03:29:47.840 ,4,0,,0,0.,4.8,0.,4.8,,0,0.,4.8,0.,4.8
1981-08-28 03:29:52.640 ,4,0,,0,,0,,0,,0,,0,,0
1981-08-28 03:29:57.440 ,4,0,,0,0.,4.8,0.,4.8,,0,0.,4.8,0.,4.8
1981-08-28 03:30:02.240 ,4,0,,0,1.,4.8,0.,4.8,,0,0.,4.8,0.,4.8
1981-08-28 03:30:07.040 ,4,0,,0,0.,4.8,0.,4.8,,0,0.,4.8,0.,4.8
1981-08-28 03:30:11.840 ,4,0,,0,1.,4.8,0.,4.8,,0,0.,4.8,0.,4.8
1981-08-28 03:30:16.640 ,4,0,,0,0.,4.8,0.,4.8,,0,0.,4.8,0.,4.8
1981-08-28 03:30:21.440 ,4,0,,0,0.,4.8,0.,4.8,,0,0.,4.8,0.,4.8
1981-08-28 03:30:26.240 ,5,0,,0,0.,4.8,0.,4.8,,0,0.,4.8,0.,4.8
1981-08-28 03:30:31.040 ,5,0,,0,0.,4.8,0.,4.8,,0,0.,4.8,0.,4.8
1981-08-28 03:30:35.840 ,5,0,,0,0.,4.8,0.,4.8,,0,1.,4.8,0.,4.8
1981-08-28 03:30:40.640 ,5,0,,0,2.,4.8,0.,4.8,,0,0.,4.8,0.,4.8
1981-08-28 03:30:45.440 ,5,0,,0,1.,4.8,0.,4.8,,0,0.,4.8,0.,4.8
1981-08-28 03:30:50.240 ,5,0,,0,1.,4.8,0.,4.8,,0,0.,4.8,0.,4.8
1981-08-28 03:30:55.040 ,5,0,,0,2.,4.8,0.,4.8,,0,0.,4.8,0.,4.8
1981-08-28 03:30:59.840 ,5,0,,0,2.,4.8,0.,4.8,,0,0.,4.8,0.,4.8
1981-08-28 03:31:04.640 ,5,0,,0,0.,4.8,0.,4.8,,0,0.,4.8,0.,4.8
1981-08-28 03:31:09.440 ,5,0,,0,0.,4.8,0.,4.8,,0,0.,4.8,0.,4.8
1981-08-28 03:31:14.240 ,6,0,,0,0.,4.8,0.,4.8,,0,0.,4.8,0.,4.8
1981-08-28 03:31:19.040 ,6,0,,0,0.,4.8,0.,4.8,,0,0.,4.8,0.,4.8
1981-08-28 03:31:23.840 ,6,0,,0,0.,4.8,0.,4.8,,0,0.,4.8,0.,4.8
1981-08-28 03:31:28.640 ,6,0,,0,1.,4.8,0.,4.8,,0,0.,4.8,0.,4.8
1981-08-28 03:31:33.440 ,6,0,,0,1.,4.8,0.,4.8,,0,0.,4.8,0.,4.8
1981-08-28 03:31:38.240 ,6,0,,0,3.,4.8,0.,4.8,,0,0.,4.8,0.,4.8
1981-08-28 03:31:43.040 ,6,0,,0,1.,4.8,0.,4.8,,0,0.,4.8,0.,4.8
1981-08-28 03:31:47.840 ,6,0,,0,1.,4.8,0.,4.8,,0,0.,4.8,0.,4.8
1981-08-28 03:31:52.640 ,6,0,,0,0.,4.8,0.,4.8,,0,0.,4.8,0.,4.8
1981-08-28 03:31:57.440 ,6,0,,0,0.,4.8,0.,4.8,,0,0.,4.8,0.,4.8
1981-08-28 03:32:02.240 ,7,0,,0,0.,4.8,0.,4.8,,0,0.,4.8,0.,4.8
1981-08-28 03:32:07.040 ,7,0,,0,0.,4.8,0.,4.8,,0,0.,4.8,0.,4.8
1981-08-28 03:32:11.840 ,7,0,,0,1.,4.8,0.,4.8,,0,0.,4.8,0.,4.8
1981-08-28 03:32:16.640 ,7,0,,0,7.,4.8,0.,4.8,,0,0.,4.8,0.,4.8
1981-08-28 03:32:21.440 ,7,0,,0,8.,4.8,0.,4.8,,0,0.,4.8,0.,4.8
1981-08-28 03:32:26.240 ,7,0,,0,11.,4.8,0.,4.8,,0,0.,4.8,0.,4.8
1981-08-28 03:32:31.040 ,7,0,,0,9.,4.8,0.,4.8,,0,0.,4.8,0.,4.8
1981-08-28 03:32:35.840 ,7,0,,0,2.,4.8,0.,4.8,,0,0.,4.8,0.,4.8
1981-08-28 03:32:40.640 ,7,0,,0,0.,4.8,0.,4.8,,0,0.,4.8,0.,4.8
1981-08-28 03:32:45.440 ,7,0,,0,0.,4.8,0.,4.8,,0,0.,4.8,0.,4.8
1981-08-28 03:32:50.240 ,7,0,,0,0.,4.8,0.,4.8,,0,0.,4.8,0.,4.8
1981-08-28 03:32:55.040 ,7,0,,0,0.,4.8,0.,4.8,,0,0.,4.8,0.,4.8
1981-08-28 03:32:59.840 ,7,0,,0,1.,4.8,0.,4.8,,0,0.,4.8,0.,4.8
1981-08-28 03:33:04.640 ,7,0,,0,14.,4.8,0.,4.8,,0,0.,4.8,0.,4.8
1981-08-28 03:33:09.440 ,7,0,,0,8.,4.8,0.,4.8,,0,0.,4.8,0.,4.8
1981-08-28 03:33:14.240 ,6,0,,0,8.,4.8,0.,4.8,,0,0.,4.8,0.,4.8
1981-08-28 03:33:19.040 ,6,0,,0,5.,4.8,0.,4.8,,0,0.,4.8,0.,4.8
1981-08-28 03:33:23.840 ,6,0,,0,1.,4.8,0.,4.8,,0,0.,4.8,0.,4.8
1981-08-28 03:33:28.640 ,6,0,,0,0.,4.8,0.,4.8,,0,0.,4.8,0.,4.8
1981-08-28 03:33:33.440 ,6,0,,0,0.,4.8,0.,4.8,,0,0.,4.8,0.,4.8
1981-08-28 03:33:38.240 ,5,0,,0,0.,4.8,0.,4.8,,0,0.,4.8,0.,4.8
1981-08-28 03:33:43.040 ,5,0,,0,1.,4.8,0.,4.8,,0,0.,4.8,0.,4.8
1981-08-28 03:33:47.840 ,5,0,,0,0.,4.8,0.,4.8,,0,0.,4.8,0.,4.8
1981-08-28 03:33:52.640 ,5,0,,0,1.,4.8,0.,4.8,,0,0.,4.8,0.,4.8
1981-08-28 03:33:57.440 ,5,0,,0,1.,4.8,0.,4.8,,0,0.,4.8,0.,4.8
1981-08-28 03:34:02.240 ,4,0,,0,0.,4.8,0.,4.8,,0,0.,4.8,0.,4.8
1981-08-28 03:34:07.040 ,4,0,,0,0.,4.8,0.,4.8,,0,0.,4.8,0.,4.8
1981-08-28 03:34:11.840 ,4,0,,0,1.,4.8,0.,4.8,,0,0.,4.8,0.,4.8
1981-08-28 03:34:16.640 ,4,0,,0,0.,4.8,0.,4.8,,0,0.,4.8,0.,4.8
1981-08-28 03:34:21.440 ,4,0,,0,0.,4.8,0.,4.8,,0,1.,4.8,0.,4.8
1981-08-28 03:34:26.240 ,3,0,,0,0.,4.8,0.,4.8,,0,0.,4.8,0.,4.8
1981-08-28 03:34:31.040 ,3,0,,0,0.,4.8,0.,4.8,,0,0.,4.8,0.,4.8
1981-08-28 03:34:35.840 ,3,0,,0,0.,4.8,0.,4.8,,0,0.,4.8,0.,4.8
1981-08-28 03:34:40.640 ,3,0,,0,0.,4.8,0.,4.8,,0,0.,4.8,0.,4.8
1981-08-28 03:34:45.440 ,3,0,,0,2.,4.8,0.,4.8,,0,0.,4.8,0.,4.8
1981-08-28 03:34:50.240 ,2,0,,0,1.,4.8,0.,4.8,,0,0.,4.8,0.,4.8
1981-08-28 03:34:55.040 ,2,0,,0,1.,4.8,0.,4.8,,0,0.,4.8,0.,4.8
1981-08-28 03:34:59.840 ,2,0,,0,3.,4.8,0.,4.8,,0,0.,4.8,0.,4.8
1981-08-28 03:35:04.640 ,2,0,,0,0.,4.8,0.,4.8,,0,0.,4.8,0.,4.8
1981-08-28 03:35:09.440 ,2,0,,0,0.,4.8,0.,4.8,,0,0.,4.8,0.,4.8
1981-08-28 03:35:14.240 ,1,0,,0,0.,4.8,0.,4.8,,0,0.,4.8,0.,4.8
1981-08-28 03:35:19.040 ,1,0,,0,0.,4.8,0.,4.8,,0,0.,4.8,0.,4.8
1981-08-28 03:35:23.840 ,1,0,,0,0.,4.8,0.,4.8,,0,0.,4.8,0.,4.8
1981-08-28 03:35:28.640 ,1,0,,0,0.,4.8,0.,4.8,,0,0.,4.8,0.,4.8
1981-08-28 03:35:33.440 ,1,0,,0,0.,4.8,0.,4.8,,0,0.,4.8,0.,4.8
1981-08-28 03:35:38.240 ,0,0,,0,0.,4.8,0.,4.8,,0,0.,4.8,0.,4.8
1981-08-28 03:35:43.040 ,0,0,,0,1.,4.8,0.,4.8,,0,0.,4.8,0.,4.8
1981-08-28 03:35:47.840 ,0,0,,0,1.,4.8,0.,4.8,,0,0.,4.8,0.,4.8
1981-08-28 03:35:52.640 ,0,0,,0,0.,4.8,0.,4.8,,0,0.,4.8,0.,4.8
1981-08-28 03:35:57.440 ,0,0,,0,0.,4.8,0.,4.8,,0,0.,4.8,0.,4.8
1981-08-28 03:36:50.240 ,0,0,,0,0.,4.8,0.,4.8,,0,0.,4.8,0.,4.8
1981-08-28 03:36:55.040 ,0,0,,0,0.,4.8,0.,4.8,,0,0.,4.8,0.,4.8
1981-08-28 03:36:59.840 ,0,0,,0,0.,4.8,0.,4.8,,0,0.,4.8,0.,4.8
1981-08-28 03:37:04.640 ,0,0,,0,0.,4.8,0.,4.8,,0,0.,4.8,0.,4.8
1981-08-28 03:37:09.440 ,0,0,,0,0.,4.8,0.,4.8,,0,0.,4.8,0.,4.8
1981-08-28 03:37:14.240 ,3,0,,0,0.,4.8,0.,4.8,,0,0.,4.8,0.,4.8
1981-08-28 03:37:19.040 ,3,0,,0,0.,4.8,0.,4.8,,0,0.,4.8,0.,4.8
1981-08-28 03:37:23.840 ,3,0,,0,1.,4.8,0.,4.8,,0,0.,4.8,0.,4.8
1981-08-28 03:37:28.640 ,3,0,,0,0.,4.8,0.,4.8,,0,0.,4.8,0.,4.8
1981-08-28 03:37:33.440 ,3,0,,0,0.,4.8,0.,4.8,,0,0.,4.8,0.,4.8
1981-08-28 03:37:38.240 ,4,0,,0,0.,4.8,0.,4.8,,0,0.,4.8,0.,4.8
1981-08-28 03:37:43.040 ,4,0,,0,0.,4.8,0.,4.8,,0,0.,4.8,0.,4.8
1981-08-28 03:37:47.840 ,4,0,,0,1.,4.8,0.,4.8,,0,0.,4.8,0.,4.8
1981-08-28 03:37:52.640 ,4,0,,0,1.,4.8,0.,4.8,,0,0.,4.8,0.,4.8
1981-08-28 03:37:57.440 ,4,0,,0,0.,4.8,0.,4.8,,0,0.,4.8,0.,4.8
1981-08-28 03:38:02.240 ,5,0,,0,1.,4.8,0.,4.8,,0,0.,4.8,0.,4.8
1981-08-28 03:38:07.040 ,5,0,,0,1.,4.8,0.,4.8,,0,0.,4.8,0.,4.8
1981-08-28 03:38:11.840 ,5,0,,0,1.,4.8,0.,4.8,,0,0.,4.8,0.,4.8
1981-08-28 03:38:16.640 ,5,0,,0,0.,4.8,0.,4.8,,0,0.,4.8,0.,4.8
1981-08-28 03:38:21.440 ,5,0,,0,0.,4.8,0.,4.8,,0,0.,4.8,0.,4.8
1981-08-28 03:38:26.240 ,6,0,,0,0.,4.8,0.,4.8,,0,0.,4.8,0.,4.8
1981-08-28 03:38:31.040 ,6,0,,0,0.,4.8,0.,4.8,,0,0.,4.8,0.,4.8
1981-08-28 03:38:35.840 ,6,0,,0,0.,4.8,0.,4.8,,0,0.,4.8,0.,4.8
1981-08-28 03:38:40.640 ,6,0,,0,1.,4.8,0.,4.8,,0,0.,4.8,0.,4.8
1981-08-28 03:38:45.440 ,6,0,,0,1.,4.8,0.,4.8,,0,0.,4.8,0.,4.8
1981-08-28 03:38:50.240 ,7,0,,0,0.,4.8,0.,4.8,,0,0.,4.8,0.,4.8
1981-08-28 03:38:55.040 ,7,0,,0,3.,4.8,0.,4.8,,0,0.,4.8,0.,4.8
1981-08-28 03:38:59.840 ,7,0,,0,11.,4.8,0.,4.8,,0,0.,4.8,0.,4.8
1981-08-28 03:39:04.640 ,7,0,,0,0.,4.8,0.,4.8,,0,0.,4.8,0.,4.8
1981-08-28 03:39:09.440 ,7,0,,0,0.,4.8,0.,4.8,,0,0.,4.8,0.,4.8
1981-08-28 03:39:14.240 ,7,0,,0,0.,4.8,0.,4.8,,0,0.,4.8,0.,4.8
1981-08-28 03:39:19.040 ,7,0,,0,0.,4.8,0.,4.8,,0,0.,4.8,0.,4.8
1981-08-28 03:39:23.840 ,7,0,,0,0.,4.8,0.,4.8,,0,0.,4.8,0.,4.8
1981-08-28 03:39:28.640 ,7,0,,0,7.,4.8,0.,4.8,,0,0.,4.8,0.,4.8
1981-08-28 03:39:33.440 ,7,0,,0,14.,4.8,0.,4.8,,0,0.,4.8,0.,4.8
1981-08-28 03:39:38.240 ,7,0,,0,9.,4.8,0.,4.8,,0,0.,4.8,0.,4.8
1981-08-28 03:39:43.040 ,7,0,,0,8.,4.8,0.,4.8,,0,0.,4.8,0.,4.8
1981-08-28 03:39:47.840 ,7,0,,0,6.,4.8,0.,4.8,,0,0.,4.8,0.,4.8
1981-08-28 03:39:52.640 ,7,0,,0,0.,4.8,0.,4.8,,0,0.,4.8,0.,4.8